User: anonymous   Login
Location: Unspecified
(0.0000°N, 0.0000°E)
Time: 14:00:08
(UTC+00:00)
Language:

AO-85 - Orbit

View from above orbital plane
View from above orbital plane
View from above satellite
View from above satellite

Ground track
Ground track

The orbit data is extracted from the following two-line orbital elements,

1 40967U 15058D   18046.41842065  .00000023  00000-0  21381-4 0 02384
2 40967 064.7754 200.8970 0194053 352.2234 007.5878 14.75638025035688
Epoch (UTC): 15 February 2018 10:02:31
Eccentricity: 0.0194053
inclination: 64.7754°
perigee height: 507 km
apogee height: 779 km
right ascension of ascending node: 200.8970°
argument of perigee: 352.2234°
revolutions per day: 14.75638025
mean anomaly at epoch: 7.5878°
orbit number at epoch: 3568

The dashed part of the orbit path shows where the satellite is in the earth's shadow,  

DLR